sat.trackr.live / text

‹ back to catalog

GEO-KOMPSAT-2A

NORAD 43823 · 2018-100A

PAYLOAD ACTIVE UNKNOWN

§ Identity

Operator
Country
SKOR
Launch date
2018-12-04
Launch site
FRGUI
Launch vehicle
Mass (kg)
RCS (m²)

Purposes: comms, earth_obs

External: N2YO · Heavens-Above · Gunter

§ Orbital elements

Epoch: 2026-09-19T22:42:48.280896Z

Period
1,436.09 min
Inclination
0.0431°
Eccentricity
0.0001908
Mean motion
1.00272121 rev/d
Perigee alt
35,778.5 km
Apogee alt
35,794.5 km
Semi-major
42,164.6 km
B*
0.0000e+0
RAAN
9.5080°
Arg perigee
114.8256°
Mean anomaly
343.4948°
Rev number
2,858

§ Raw data

GEO-KOMPSAT-2A1 43823U 18100A   26262.94639214 -.00000348  00000+0  00000+0 0  99902 43823   0.0431   9.5080 0001908 114.8256 343.4948  1.00272121 28581

JSON: /api/v1/satellites/43823 · /tle

For live sub-satellite position, see the globe view (requires WebGL).

§ Visibility from observer

Set your observer location to see the next 7 days of passes ≥ 10°. The values pass through the URL so the page stays shareable.

No JS? Fill the form by hand. The geolocation button needs JavaScript.